This demonstration page uses our WeatherBlox Daily Observations layout. Learn more.

Left ArrowRight Arrow

Hourly Observations for September 15, 2020

Temp ( °F °C ) Dew Point ( °F °C ) Humidity (%) Winds ( mph kmh ) Pressure ( in mb ) Visibility ( mi km ) Precip ( " mm )
12:52 am 00:52 Clear 64 17.8 59 15 84 84 S 10 17 30.22 1023 10 16 0.00 0.00
1:52 am 01:52 Clear 62 16.7 59 15 90 90 SSE 8 13 30.22 1023 10 16 0.00 0.00
2:52 am 02:52 Clear 63 17.2 60 15.6 90 90 S 8 13 30.22 1023 10 16 0.00 0.00
3:52 am 03:52 Clear 62 16.7 60 15.6 93 93 SSE 9 15 30.20 1023 10 16 0.00 0.00
4:52 am 04:52 Clear 61 16.1 59 15 93 93 SSE 7 11 30.19 1023 10 16 0.00 0.00
5:52 am 05:52 Clear 59 15 58 14.4 96 96 SSE 7 11 30.20 1023 10 16 0.00 0.00
6:52 am 06:52 Partly Cloudy 58 14.4 58 14.4 100 100 SSE 8 13 30.19 1023 10 16 0.00 0.00
7:52 am 07:52 Partly Cloudy 61 16.1 59 15 93 93 SSE 8 13 30.20 1023 10 16 0.00 0.00
8:52 am 08:52 Partly Cloudy 63 17.2 60 15.6 90 90 SSE 8 13 30.19 1023 10 16 0.00 0.00
9:52 am 09:52 Partly Cloudy 67 19.4 61 16.1 81 81 SSE 9 15 30.19 1022 10 16 0.00 0.00
10:52 am 10:52 Partly Cloudy 72 22.2 61 16.1 68 68 S 12 19 30.17 1022 10 16 0.00 0.00
11:52 am 11:52 Partly Cloudy 75 23.9 61 16.1 62 62 SSW 14 22 30.15 1021 10 16 0.00 0.00
12:52 pm 12:52 Partly Cloudy 79 26.1 60 15.6 52 52 SSW 16 26 30.12 1020 10 16 0.00 0.00
1:52 pm 13:52 Partly Cloudy 80 26.7 60 15.6 51 51 S 17 28 30.10 1019 10 16 0.00 0.00
2:52 pm 14:52 Partly Cloudy 82 27.8 59 15 46 46 SSW 17 28 30.06 1018 10 16 0.00 0.00
3:52 pm 15:52 Partly Cloudy 83 28.3 59 15 44 44 SSW 16 26 30.04 1017 10 16 0.00 0.00
4:52 pm 16:52 Mostly Cloudy 83 28.3 57 13.9 41 41 SSW 17 28 30.02 1017 10 16 0.00 0.00
5:52 pm 17:52 Mostly Cloudy 82 27.8 59 15 46 46 S 12 19 30.01 1016 10 16 0.00 0.00
6:52 pm 18:52 Mostly Cloudy 79 26.1 60 15.6 52 52 S 14 22 30.02 1017 10 16 0.00 0.00
7:52 pm 19:52 Mostly Cloudy 77 25 60 15.6 56 56 SSW 8 13 30.01 1016 10 16 0.00 0.00
8:52 pm 20:52 Mostly Cloudy 74 23.3 61 16.1 64 64 SSW 5 7 30.02 1017 10 16 0.00 0.00
9:52 pm 21:52 Mostly Cloudy 73 22.8 61 16.1 66 66 S 5 7 30.03 1017 10 16 0.00 0.00
10:52 pm 22:52 Mostly Cloudy 66 18.9 61 16.1 84 84 SE 7 11 30.03 1017 10 16 0.00 0.00
11:52 pm 23:52 Mostly Cloudy 66 18.9 62 16.7 87 87 SSE 9 15 30.01 1016 10 16 0.00 0.00

Powered by AerisWeather